Meteo Giornale » Osservazioni meteo Germania » Dresda-Klotzsche

ore: 21:20 - Osservazioni Meteo Dresda-Klotzsche
Lat. 51° 8' N Lon. 13° 45' E Alt. 230 metri s.l.m.

poco_nuvoloso Europe/Berlin

14 °C

Poco Nuvoloso

Temp. 24 Ore

13 °C

16 °C

Nord

5.5 Km/h

Dew point 11 °C

Umidità 82 %

Visibilità  10 Km

Il sole sorge alle ore 06:42

Il sole tramonta alle ore 19:16

Data e Ora Cielo e Fenomeni T °C DP °C Um. % Pres. hPa Vis. km Vento km/h
Oggi h: 21:20 poco_nuvoloso Poco Nuvoloso 14 11 82 1014 10 N 5.5
Oggi h: 20:50 poco_nuvoloso Poco Nuvoloso 14 11 82 1014 10 N 5.5
Oggi h: 20:20 nuvoloso Nuvoloso 14 11 82 1014 10 N 3.7
Oggi h: 19:50 poco_nuvoloso Poco Nuvoloso 14 11 82 1014 10 N 5.5
Oggi h: 19:20 poco_nuvoloso Poco Nuvoloso 15 11 76 1014 10 O/NO 9.3
Oggi h: 18:20 nuvoloso Nuvoloso 16 11 72 1014 10 NO 9.3
Oggi h: 17:50 nuvoloso Nuvoloso 16 11 72 1014 10 NO 9.3
Oggi h: 17:20 nuvoloso Nuvoloso 16 11 72 1014 10 NO 16.7
Oggi h: 16:50 nuvoloso Nuvoloso 16 11 72 1013 10 O/NO 11.1
Oggi h: 16:20 nuvoloso Nuvoloso 16 11 72 1014 10 O/NO 13
Oggi h: 15:50 coperto_pioggia Pioggia Debole 16 12 77 1014 10 O/NO 14.8
Oggi h: 15:20 molto_nuvoloso Molto Nuvoloso 16 11 72 1014 10 O/NO 14.8
Oggi h: 14:50 molto_nuvoloso Molto Nuvoloso 16 11 72 1014 10 O/NO 14.8
Oggi h: 14:20 coperto_pioggia Pioggia Debole 15 11 76 1014 10 O/NO 16.7
Oggi h: 13:50 molto_nuvoloso Molto Nuvoloso 15 11 76 1014 10 O/NO 18.5
Oggi h: 13:20 molto_nuvoloso Molto Nuvoloso 15 11 76 1014 10 O/NO 20.3
Oggi h: 12:50 molto_nuvoloso Molto Nuvoloso 15 11 76 1014 10 O/NO 16.7
Oggi h: 12:20 molto_nuvoloso Molto Nuvoloso 15 11 76 1014 10 O/NO 14.8
Oggi h: 11:50 molto_nuvoloso Molto Nuvoloso 15 12 82 1014 10 O 16.7
Oggi h: 11:20 coperto_pioggia Pioggia Debole 13 12 93 1014 5 O/NO 14.8
Oggi h: 10:50 molto_nuvoloso Molto Nuvoloso 14 11 82 1014 10 O/NO 16.7
Oggi h: 10:20 molto_nuvoloso Molto Nuvoloso 14 12 87 1014 10 O 13
Oggi h: 09:50 coperto_pioggia Pioggia Debole 14 12 87 1014 4 NO 11.1
Oggi h: 09:20 coperto_pioggia Pioggia Debole 14 11 82 1014 10 O 14.8
Oggi h: 08:50 molto_nuvoloso Molto Nuvoloso 14 12 87 1014 10 O 11.1
Oggi h: 08:20 coperto_pioggia Pioggia Debole 14 12 87 1014 10 O 13
Oggi h: 07:50 coperto_pioggia Pioggia Debole 14 12 87 1014 10 O 14.8
Oggi h: 07:20 coperto_pioggia Pioggia Debole 14 12 87 1014 10 O 11.1
Oggi h: 06:50 molto_nuvoloso Molto Nuvoloso 14 12 87 1014 10 O 13
Oggi h: 06:20 molto_nuvoloso Molto Nuvoloso 14 12 87 1014 10 O 13
Oggi h: 05:50 molto_nuvoloso Molto Nuvoloso 14 12 87 1014 10 O 11.1
Oggi h: 05:20 nuvoloso Nuvoloso 14 12 87 1014 10 O 11.1
Oggi h: 04:50 nuvoloso Nuvoloso 14 12 87 1014 10 O 9.3
Oggi h: 04:20 poco_nuvoloso Poco Nuvoloso 14 12 87 1014 10 O 9.3
Oggi h: 03:50 poco_nuvoloso Poco Nuvoloso 14 12 87 1014 10 O 9.3
Oggi h: 03:20 poco_nuvoloso Poco Nuvoloso 14 12 87 1014 10 O 11.1
Oggi h: 02:50 sereno Sereno 15 12 82 1014 10 O 9.3
Oggi h: 02:20 sereno Sereno 14 12 87 1015 10 O/SO 7.4
Oggi h: 01:50 sereno Sereno 14 12 87 1015 10 O/SO 7.4
Oggi h: 01:20 sereno Sereno 14 12 87 1015 10 N 5.5
Oggi h: 00:50 sereno Sereno 14 12 87 1015 10 N 5.5
Oggi h: 00:20 sereno Sereno 14 12 87 1015 10 O/SO 7.4
Ieri h: 23:50 sereno Sereno 15 12 82 1015 10 O/SO 7.4
Ieri h: 23:20 sereno Sereno 15 12 82 1015 10 O 7.4
Ieri h: 22:50 sereno Sereno 15 12 82 1014 10 O 7.4